Location: *
(43.7880°S, 124.1490°E)
Time: 20:36:51
(UTC+00:00)

Daily predictions for brighter satellites

Satellite Brightness Start Highest point End
(mag) Time Altitude Azimuth Time Altitude Azimuth Time Altitude Azimuth
STARLINK-70 4.2 12:01:04 10° SW 12:05:05 49° SSE 12:09:00 10° ENE
USA 186 1.7 12:03:16 10° SSE 12:06:36 71° E 12:09:44 10° N
STARLINK-76 4.2 12:02:36 10° SW 12:06:36 48° SSE 12:10:30 10° ENE
STARLINK 4.2 12:04:16 10° SW 12:08:16 49° SSE 12:12:06 11° ENE
STARLINK-32 4.2 12:05:54 10° SW 12:09:55 51° SSE 12:13:40 11° ENE
STARLINK-40 4.1 12:07:34 10° SW 12:11:36 52° SSE 12:15:16 12° ENE
STARLINK-44 4.1 12:09:12 10° SW 12:13:15 53° SSE 12:16:51 12° ENE
STARLINK-37 4.0 12:10:57 10° SW 12:15:01 57° SSE 12:18:31 13° ENE
Cosmos 1862 3.4 12:11:33 10° S 12:15:40 70° E 12:19:44 10° NNE
STARLINK-36 4.0 12:12:31 10° SW 12:16:34 55° SSE 12:20:02 13° ENE
STARLINK-48 4.5 12:13:37 10° WSW 12:17:20 39° NW 12:20:36 13° NNE
STARLINK-68 3.9 12:14:22 10° SW 12:18:27 61° SSE 12:21:47 15° ENE
Mayak 0.3 12:16:33 13° ENE 12:19:18 23° ESE 12:22:41 10° SSE
SJ-6B 2.9 12:15:40 10° SSE 12:19:53 70° E 12:24:01 10° N
STARLINK-63 3.9 12:15:54 10° SW 12:19:59 60° SSE 12:23:17 15° ENE
Cosmos 1666 Rocket 3.6 12:15:52 10° S 12:20:16 67° E 12:24:28 11° NNE
STARLINK-35 3.9 12:17:27 10° SW 12:21:31 60° SSE 12:24:47 15° ENE
Sich 1 3.2 12:18:21 10° S 12:22:53 81° W 12:27:21 10° N
Cosmos 1238 Rocket 3.1 12:19:54 10° SSW 12:22:56 47° W 12:25:48 10° N
STARLINK-51 3.9 12:19:06 10° SW 12:23:11 61° SSE 12:26:22 16° ENE
Cosmos 921 Rocket 4.0 12:20:52 10° S 12:24:41 31° ESE 12:27:17 17° ENE
STARLINK-30 3.8 12:20:47 10° SW 12:24:52 63° SSE 12:27:59 16° ENE
Cosmos 1328 Rocket 3.9 12:21:02 10° NNE 12:25:15 46° E 12:29:29 10° SSE
SPOT 3 Rocket 3.7 12:20:49 10° SSE 12:25:57 52° E 12:31:00 10° N
STARLINK-72 3.8 12:22:25 10° SW 12:26:31 65° SSE 12:29:33 17° ENE
FREGAT/IRIS 3.9 12:24:20 10° S 12:27:02 39° WSW 12:29:42 10° NW
Gbstr 26 Del rocket 4.0 12:23:57 10° SW 12:27:35 34° SSE 12:31:05 10° E
STARLINK-50 3.8 12:24:04 10° SW 12:28:10 66° SSE 12:31:08 18° ENE
STARLINK-59 3.7 12:25:49 10° SW 12:29:55 70° SSE 12:32:48 19° ENE
MOS 1 4.4 12:25:12 10° SSE 12:31:01 90° WSW 12:36:46 10° NNW
STARLINK-56 3.7 12:27:23 10° SW 12:31:30 70° SSE 12:34:20 19° ENE
Cosmos 1140 Rocket 4.1 12:27:04 10° NNE 12:31:43 34° E 12:36:22 10° SE
Starlink (trailer) 3.7 12:29:02 10° SW 12:33:09 71° SSE 12:35:55 20° ENE
STARLINK-75 3.3 12:30:08 10° SW 12:33:58 85° SE 12:36:20 22° ENE
STARLINK-38 3.7 12:30:42 10° SW 12:34:49 74° SSE 12:37:31 20° ENE
Cosmos 1633 4.0 12:31:40 10° SSW 12:35:06 37° W 12:38:27 10° NNW
STARLINK 1051 4.5 12:33:17 10° SW 12:35:56 27° SSE 12:38:00 14° ESE
Cosmos 2369 Rocket 2.7 12:30:40 10° SSW 12:36:07 46° ESE 12:39:56 19° NE
STARLINK-65 3.6 12:32:21 10° SW 12:36:28 75° SE 12:39:06 21° ENE
Cosmos 1943 3.9 12:32:30 10° NNE 12:37:31 33° ENE 12:42:38 10° SE
Cosmos 1633 Rocket 3.1 12:33:27 10° S 12:38:00 86° ESE 12:41:47 14° N
STARLINK-41 3.4 12:34:14 10° SW 12:38:02 80° SE 12:40:16 23° ENE
STARLINK-53 3.6 12:34:05 10° SW 12:38:13 80° SE 12:40:46 22° ENE
Geosat 4.1 12:34:30 15° NNE 12:38:47 78° WNW 12:43:54 10° SSW
STARLINK-58 3.5 12:35:10 10° SW 12:39:12 80° SSE 12:41:38 23° ENE
STARLINK-26 4.3 12:36:47 10° WSW 12:40:03 35° NW 12:41:57 20° N
Ariane Rocket 4.1 12:35:12 10° S 12:40:08 48° WSW 12:45:01 10° NW
STARLINK-62 3.5 12:36:54 10° SW 12:40:56 84° SE 12:43:17 24° ENE
STARLINK 3.4 12:37:29 10° SW 12:41:16 79° SSE 12:43:24 25° ENE
Aureole 2 Rocket 4.4 12:39:20 10° SSE 12:41:46 17° ESE 12:43:03 15° E
Resurs 1-3 3.7 12:39:09 10° SSE 12:43:35 58° E 12:47:26 13° N
Lacrosse 5 4.1 12:44:08 10° SW 12:47:56 20° S 12:51:44 10° ESE
Cosmos 1340 3.2 12:47:28 10° S 12:51:10 42° ESE 12:52:37 29° NE
Cosmos 1315 Rocket 3.4 12:51:03 27° NE 12:52:31 37° E 12:56:18 10° SSE
ARGOS 3.5 12:49:51 10° S 12:55:16 69° WSW 13:00:36 10° NNW
STARLINK 1040 3.8 12:54:05 10° SW 12:56:54 38° SSE 12:57:57 27° ESE
Cosmos 1470 Rocket 3.5 12:53:40 10° S 12:58:14 78° E 13:00:46 25° NNE
STARLINK-34 3.5 12:54:22 10° WSW 12:58:22 73° NW 13:00:02 33° NE
Cosmos 1954 Rocket 4.4 12:55:34 22° NNE 12:58:29 41° ENE 13:03:22 10° SE
CZ-4C R/B 4.3 12:52:59 10° WNW 13:00:22 41° SW 13:06:46 10° SSE
Spot 2 Rocket 4.3 12:55:47 10° SSE 13:00:25 33° E 13:02:03 27° NE
CZ-2C R/B 3.4 12:56:45 10° S 13:01:32 60° WSW 13:06:24 10° NNW
STARLINK-42 3.6 13:02:38 10° WSW 13:06:19 55° NW 13:07:23 38° NNE
STARLINK 1014 3.7 13:03:26 10° SW 13:06:26 42° SSE 13:07:21 32° ESE
STARLINK 1037 4.5 13:02:45 10° SW 13:06:29 41° SSE 13:08:33 22° E
EO 1 Del DPAF 3.5 13:05:58 25° N 13:08:01 64° WNW 13:11:52 10° SSW
STARLINK 1059 4.4 13:06:28 10° SW 13:10:15 42° SSE 13:12:08 24° E
Cosmos 407 Rocket 3.6 13:05:37 10° NNW 13:10:46 77° WSW 13:15:59 10° SSE
NOSS 3-1 (C) 4.2 13:06:45 10° SW 13:12:28 39° WNW 13:15:59 19° N
Cosmos 1190 Rocket 4.0 13:07:16 10° NNW 13:12:35 86° WSW 13:17:56 10° SSE
MetOp-B 4.5 13:07:37 10° SSE 13:12:51 46° E 13:15:03 30° NNE
Cosmos 1782 3.5 13:13:04 34° ENE 13:13:29 34° E 13:17:11 10° SSE
STARLINK 1057 4.3 13:10:14 10° SW 13:14:01 45° SSE 13:15:45 27° E
Thor Agena Rocket 3.8 13:10:49 20° N 13:14:20 64° WNW 13:19:28 10° SSW
STARLINK-24 3.9 13:11:07 10° WSW 13:15:08 55° NW 13:16:16 40° NNE
Cosmos 1656 Rocket 4.2 13:11:52 10° SSW 13:17:11 45° ESE 13:19:33 29° ENE
STARLINK-81 3.8 13:13:36 10° WSW 13:17:38 57° NW 13:18:41 42° NNE
STARLINK 1052 4.2 13:13:59 10° SW 13:17:49 47° SSE 13:19:22 29° E
Cosmos 2228 Rocket 3.1 13:16:41 33° NNE 13:18:40 66° E 13:23:18 10° SSE
ATLAS CENTAUR R/B 0.9 13:16:47 20° NNW 13:19:16 79° ENE 13:23:11 10° SE
STARLINK-54 4.0 13:15:22 10° WSW 13:19:21 51° NW 13:20:20 40° N
Meteor 1-26 Rocket 4.3 13:16:45 23° N 13:20:33 68° E 13:26:28 10° SSE
STARLINK-77 3.9 13:16:54 10° WSW 13:20:55 54° NW 13:21:51 42° N
STARLINK 1068 4.1 13:17:44 10° SW 13:21:34 49° SSE 13:22:59 32° E
Cosmos 1891 Rocket 4.4 13:15:29 10° S 13:21:52 81° E 13:25:17 29° NNE
STARLINK-25 3.9 13:18:33 10° WSW 13:22:34 52° NW 13:23:27 43° N
STARLINK-71 4.1 13:20:28 10° WSW 13:24:24 45° NW 13:25:12 40° N
Cosmos 676 Rocket 3.9 13:21:36 21° N 13:25:12 75° ENE 13:30:30 10° SSE
STARLINK-79 4.0 13:21:51 10° WSW 13:25:49 49° NW 13:26:35 42° N
STARLINK-33 4.3 13:22:51 10° WSW 13:26:08 33° NW 13:26:26 32° NNW
ERS-1 Rocket 4.0 13:22:21 10° SE 13:26:42 28° E 13:26:57 27° E
GPS 2-04 Rocket1 4.4 13:23:38 10° WNW 13:25:32 20° NW 13:25:32 20° NW
Cosmos 1869 Rocket 4.1 13:22:51 10° S 13:27:08 42° ESE 13:27:59 38° ENE
STARLINK-78 4.0 13:23:35 10° WSW 13:27:32 47° NW 13:28:14 42° N
STARLINK-66 4.3 13:24:32 10° WSW 13:27:47 31° NW 13:28:02 31° NW
Cosmos 1513 Rocket 4.5 13:21:17 10° S 13:27:47 88° E 13:31:16 29° N
Cosmos 1933 4.0 13:26:03 19° NNW 13:28:48 53° W 13:32:50 10° S
Cosmos 1151 Rocket 4.4 13:24:41 10° NW 13:28:49 38° WSW 13:33:00 10° S
STARLINK 1060 3.9 13:25:16 10° SW 13:29:09 55° SSE 13:30:14 40° E
STARLINK-57 4.1 13:25:22 10° WSW 13:29:16 43° NW 13:29:54 40° NNW
STARLINK-55 4.5 13:26:15 10° WSW 13:29:27 29° NW 13:29:37 29° NW
Resurs 01 Rocket 2.0 13:25:08 10° S 13:29:36 65° WSW 13:32:47 18° NNW
CZ-3B R/B 2.4 13:26:25 10° WSW 13:29:37 29° WNW 13:29:37 29° WNW
STARLINK-64 4.2 13:26:32 10° WSW 13:30:05 36° NW 13:30:24 36° NNW
STARLINK-49 4.1 13:26:53 10° WSW 13:30:48 44° NW 13:31:24 41° NNW
Cosmos 1943 Rocket 2.7 13:26:22 10° SSW 13:31:55 54° WNW 13:34:47 27° N
STARLINK-27 4.1 13:28:32 10° WSW 13:32:26 43° NW 13:32:57 40° NNW
STARLINK 1030 3.8 13:29:03 10° SW 13:32:57 58° SSE 13:33:53 44° E
TSX-5 3.8 13:29:55 10° SSW 13:33:30 71° WNW 13:34:22 52° N
Cosmos 1346 Rocket 2.9 13:29:57 10° SSW 13:33:59 70° W 13:35:03 46° NNW
STARLINK-74 4.2 13:30:12 10° WSW 13:34:05 42° NW 13:34:33 40° NNW
H-2A R/B 4.2 13:31:03 10° S 13:35:06 25° WSW 13:39:06 10° WNW
STARLINK-39 4.2 13:31:53 10° WSW 13:35:44 40° NW 13:36:09 39° NNW
STARLINK 1035 3.5 13:32:18 10° SW 13:36:00 64° SSE 13:36:30 55° ESE
Lacrosse 4 Rocket 3.2 13:33:22 10° WSW 13:36:35 22° WNW 13:38:11 18° NW
STARLINK 1029 3.1 13:33:27 10° SW 13:36:33 68° SSE 13:36:33 68° SSE
STARLINK 1020 3.7 13:32:51 10° SW 13:36:47 62° SSE 13:37:34 49° E
Cosmos 1606 3.8 13:34:50 20° NW 13:37:08 42° WSW 13:40:51 10° S
STARLINK 4.3 13:33:34 10° WSW 13:37:24 39° NW 13:37:45 38° NNW
ATLAS 3B CENTAUR R/B 3.9 13:32:52 10° NW 13:35:29 21° N 13:35:29 21° N
STARLINK-69 4.5 13:35:28 10° WSW 13:39:13 35° NW 13:39:30 34° NW
Landsat 7 4.0 13:35:08 10° SSE 13:39:51 50° E 13:40:32 46° NE
Cosmos 1464 Rocket 4.0 13:34:01 10° S 13:40:14 76° W 13:43:28 30° N
Cosmos 1602 3.8 13:36:37 10° S 13:40:32 60° E 13:40:47 59° E
STARLINK 1034 3.6 13:36:40 10° SW 13:40:36 66° SSE 13:41:14 55° E
STARLINK-21 4.4 13:36:56 10° WSW 13:40:43 36° NW 13:40:58 36° NW
STARLINK 1027 3.3 13:37:01 10° SW 13:40:45 73° SSE 13:41:02 68° ESE
Cosmos 2034 Rocket 4.0 13:35:42 10° S 13:42:12 82° E 13:45:02 36° NNE
Cosmos 2263 4.2 13:37:35 10° SSW 13:43:17 75° WNW 13:45:26 40° N
STARLINK 1033 3.4 13:44:22 10° SW 13:48:19 74° SSE 13:48:39 68° ESE
Meteor 1-14 Rocket 4.3 13:45:46 10° S 13:51:51 88° W 13:54:06 41° N
Tsikada Rocket 4.0 13:49:55 38° NNE 13:52:28 70° E 13:58:56 10° SSE
Mayak 0.1 13:53:08 26° NW 13:54:40 34° W 13:58:38 10° SSW
NOSS 3-1 (A) 4.5 13:49:28 10° SW 13:54:48 31° WNW 13:56:57 24° NNW
USA 234 3.6 13:50:01 10° ESE 13:56:10 40° NE 13:56:31 39° NE
Cosmos 1707 Rocket 3.8 13:58:52 54° E 13:58:52 54° E 14:03:19 10° SSE
Cosmos 1733 Rocket 4.0 14:01:11 10° S 14:05:09 34° ESE 14:05:09 34° ESE
Meteor 2-6 Rocket 4.1 14:07:22 56° NNE 14:08:25 71° E 14:13:53 10° SSE
Cosmos 468 Rocket 4.0 14:04:13 10° SSW 14:09:24 67° ESE 14:10:12 58° ENE
Meteor 1-10 Rocket 4.2 14:11:54 57° NE 14:12:50 67° E 14:18:25 10° SSE
GP-B 3.3 14:08:57 10° S 14:13:27 67° W 14:14:06 58° NW
Gbstr 26 Del rocket 3.5 14:10:47 10° WSW 14:13:36 42° W 14:13:36 42° W
STARLINK 1044 4.0 14:11:33 10° WSW 14:14:47 54° W 14:14:47 54° W
Aureole 2 Rocket 3.9 14:12:36 10° SW 14:15:22 31° W 14:15:22 31° W
STARLINK 1031 4.1 14:12:48 10° WSW 14:15:51 50° W 14:15:51 50° W
Terra 2.2 14:13:08 10° SSE 14:17:32 48° E 14:17:32 48° E
Cosmos 192 4.3 14:13:46 10° SSW 14:18:48 73° ESE 14:19:16 68° ENE
Cosmos 2369 Rocket 3.6 14:15:12 10° SW 14:19:52 27° WNW 14:21:43 23° NW
STARLINK 1024 4.3 14:16:27 10° WSW 14:19:21 45° W 14:19:21 45° W
Cosmos 1943 4.5 14:16:07 10° NW 14:21:28 40° WSW 14:26:53 10° SSE
BREEZE M DEB (TANK) 2.8 14:13:44 10° WSW 14:22:20 73° SSE 14:22:50 63° ESE
Cosmos 1850 Rocket 3.9 14:23:05 61° NNW 14:24:02 87° WSW 14:29:19 10° SSE
Cosmos 1570 Rocket 4.2 14:21:49 10° SSW 14:27:10 60° ESE 14:27:48 56° E
STARLINK 1041 4.4 14:24:04 10° SW 14:28:09 46° SSE 14:28:33 44° SE
ATLAS 2AS CENTAUR R/B 4.2 14:22:47 10° SSW 14:28:13 27° SE 14:33:28 12° E
Cosmos 1500 3.9 14:26:48 10° S 14:29:47 49° SSE 14:29:47 49° SSE
Lacrosse 5 2.8 14:27:07 10° SW 14:32:04 44° SSE 14:33:38 34° ESE
STARLINK 1038 4.3 14:29:01 10° SW 14:33:08 49° SSE 14:33:18 48° SE
Meteor 1-11 Rocket 3.8 14:29:11 10° S 14:35:11 74° ESE 14:36:09 62° NE
Cosmos 1741 Rocket 4.1 14:34:24 53° NW 14:35:38 73° WSW 14:41:02 10° SSE
Cosmos 1634 Rocket 3.9 14:29:32 10° S 14:35:49 89° W 14:37:06 59° N
STARLINK 1046 4.3 14:34:00 10° SW 14:38:06 52° SSE 14:38:06 52° SSE
STARLINK 1039 4.2 14:38:58 10° SW 14:42:53 54° SSE 14:42:53 54° SSE
CARTOSAT-1 3.9 14:39:05 10° S 14:43:26 59° WSW 14:43:32 58° W
GEOS 3 Rocket 3.5 14:44:02 72° NNW 14:44:25 77° NW 14:49:45 10° SW
STARLINK 1045 4.3 14:43:57 10° SW 14:47:40 55° S 14:47:40 55° S
Helios 1B rocket 2.9 14:50:53 62° SSW 14:50:53 62° SSW 14:54:27 10° SSW
SPOT 5 3.1 14:47:29 10° S 14:51:50 55° WSW 14:52:00 55° W
Cosmos 2242 Rocket 4.3 14:53:09 47° SE 14:53:09 47° SE 14:56:52 10° SSE
Cosmos 841 Rocket 3.5 14:47:22 10° SSW 14:52:42 73° ESE 14:52:51 73° E
STARLINK 1050 4.3 14:48:59 10° SW 14:52:29 54° SSW 14:52:29 54° SSW
Cosmos 909 Rocket 3.9 14:53:01 62° NNW 14:54:08 81° ENE 15:00:39 10° SE
Celestis-02/Orion 38 4.5 14:54:58 79° ENE 14:55:15 84° ESE 15:00:37 10° SSW
Cosmos 220 Rocket 4.4 14:52:34 10° SSW 14:56:20 62° SW 14:56:20 62° SW
STARLINK 1055 4.4 14:53:59 10° SW 14:57:17 51° SSW 14:57:17 51° SSW
ATLAS CENTAUR R/B 4.2 14:56:36 10° WSW 14:58:47 14° SW 15:01:02 10° S
Cosmos 2082 Rocket 4.4 15:00:00 12° E 15:00:00 12° E 15:01:08 10° ESE
COSMOS 2455 4.5 14:54:31 10° SSW 14:59:39 27° SE 15:02:50 18° E
PSLV R/B 4.2 15:03:46 51° SSE 15:03:46 51° SSE 15:07:17 10° S
ERS-1 Rocket 4.1 15:00:51 10° S 15:05:32 38° WSW 15:06:56 32° WNW
COSMOS 2406 3.9 15:09:15 42° E 15:09:15 42° E 15:14:05 10° SE
Cosmos 1812 4.1 15:09:18 36° SW 15:09:18 36° SW 15:12:21 10° S
Cosmos 1666 4.0 15:04:53 10° S 15:07:22 39° S 15:07:22 39° S
MOS 1-B Rocket 3.7 15:08:37 76° NE 15:09:04 85° ESE 15:14:49 10° SSW
Cosmos 2279 Rocket 3.9 15:02:59 10° S 15:09:19 81° W 15:10:10 68° NNW
Cosmos 2208 Rocket 4.1 15:08:22 10° SSW 15:13:31 66° W 15:13:31 66° W
SL-19 R/B 4.5 15:13:27 66° NE 15:14:22 80° ESE 15:20:42 10° SSW
CZ-4 R/B 4.4 15:20:11 49° WSW 15:20:11 49° WSW 15:24:17 10° SSW
Nadezhda 4 Rocket 4.0 15:19:19 61° ENE 15:19:52 64° E 15:26:12 10° SSE
Cosmos 1814 Rocket 4.3 15:22:53 10° SSW 15:27:55 60° W 15:27:55 60° W
Meteor 1-27 Rocket 4.3 15:27:42 43° WNW 15:28:38 47° WSW 15:34:14 10° S
Cosmos 1975 4.5 15:27:07 10° S 15:29:48 29° SE 15:29:48 29° SE
Cosmos 1782 Rocket 4.3 15:28:41 10° S 15:32:10 49° SSE 15:32:10 49° SSE
NOSS 2-2 (C) 4.5 15:26:17 10° SW 15:34:04 68° WNW 15:34:21 67° NW
Cosmos 540 Rocket 3.9 15:29:48 10° SSW 15:34:20 53° WSW 15:34:20 53° WSW
Cosmos 1092 Rocket 4.3 15:34:42 52° ENE 15:35:12 53° E 15:41:24 10° SSE
SME Rocket 4.2 15:38:20 57° WNW 15:38:47 58° WNW 15:43:47 10° SSW
USA 234 3.5 15:32:48 10° SE 15:39:23 68° SW 15:43:47 22° WNW
Cosmos 1703 Rocket 4.2 15:42:31 56° SSW 15:42:31 56° SSW 15:46:13 10° S
NOSS 3-4 (A) 4.1 15:40:03 10° SSW 15:47:09 57° SE 15:49:39 37° ENE
NOSS 3-4 (C) 4.1 15:40:10 10° SSW 15:47:15 57° SE 15:49:47 37° ENE
Spot 4 4.0 15:43:34 10° SSE 15:47:57 71° S 15:47:57 71° S
CZ-4B R/B 4.0 15:49:01 52° ESE 15:49:12 52° ESE 15:54:14 10° S
CZ-2D R/B 2.9 15:49:45 40° E 15:50:22 41° ESE 15:55:27 10° S
Cosmos 1486 Rocket 4.0 15:52:14 79° S 15:52:14 79° S 15:57:18 10° SSE
Cosmos 2369 4.3 15:46:39 10° SSW 15:52:15 50° ESE 15:53:12 46° E
Cosmos 1980 Rocket 3.7 15:49:03 10° S 15:54:06 30° SE 15:56:32 22° E
Terra 3.8 15:51:41 10° SSW 15:55:14 21° WSW 15:56:25 19° W
Cosmos 1697 Rocket 3.1 15:53:13 10° SSW 15:58:51 55° ESE 15:59:37 51° E
Cosmos 2221 Rocket 4.4 16:01:04 47° SE 16:01:04 47° SE 16:04:35 10° SSE
Cosmos 1833 Rocket 2.9 16:00:48 60° E 16:00:48 60° E 16:06:00 10° SSE
Okean 1-7 4.0 16:04:08 43° SW 16:04:08 43° SW 16:07:35 10° S
BREEZE-M DEB (TANK) 4.2 15:54:02 10° WSW 16:04:06 60° NW 16:04:06 60° NW
Resurs 1-4 Rocket 2.5 16:04:12 54° E 16:04:34 55° ESE 16:09:50 10° S
Sich 1 Rocket 4.3 16:00:38 10° S 16:04:06 52° SSW 16:04:06 52° SSW
SeaSat 1 4.5 16:07:27 10° ESE 16:09:52 17° E 16:09:52 17° E
NPP 3.9 16:13:50 60° E 16:14:13 62° ESE 16:19:37 10° S
Lacrosse 5 3.4 16:10:13 10° WSW 16:12:48 27° WSW 16:12:48 27° WSW
Meteor 1-19 Rocket 4.1 16:15:19 85° WNW 16:15:24 86° W 16:21:05 10° S
Helios 1A 3.8 16:12:08 10° SSE 16:15:22 51° SSE 16:15:22 51° SSE
Cosmos 2195 Rocket 4.3 16:18:48 76° NNW 16:19:19 86° W 16:25:39 10° S
Cosmos 1656 3.9 16:14:09 10° SSW 16:19:02 57° W 16:19:02 57° W
ATLAS 2AS CENTAUR R/B 2.5 16:13:10 10° SW 16:19:47 83° NW 16:20:50 66° NNE
Cosmos 1553 Rocket 4.4 16:16:36 10° S 16:22:49 55° ESE 16:24:07 47° ENE
Okean 2 Rocket 3.7 16:18:29 10° S 16:22:06 57° S 16:22:06 57° S
Meteor 2-4 Rocket 3.8 16:23:49 72° NE 16:24:10 75° E 16:30:11 10° SSE
Cosmos 1818 3.8 16:26:42 56° E 16:26:42 56° E 16:31:27 10° SE
Cosmos 968 Rocket 3.6 16:26:42 68° WSW 16:26:42 68° WSW 16:31:59 10° SSE
Cosmos 1428 Rocket 4.3 16:26:37 75° NNE 16:27:11 84° E 16:33:27 10° S
Aureole 3 Rocket 4.0 16:23:25 10° S 16:27:58 42° ESE 16:27:58 42° ESE
ADEOS II 3.3 16:30:48 29° E 16:32:21 35° ESE 16:37:10 10° S
ALOS 2 3.3 16:30:46 10° S 16:34:29 49° SW 16:34:29 49° SW
Meteor 2-9 Rocket 4.3 16:29:17 10° SSW 16:35:10 66° W 16:35:18 66° WNW
S3M 4.4 16:33:08 10° S 16:39:27 56° ESE 16:41:02 45° NE
Meteor 1-12 Rocket 4.2 16:33:49 10° S 16:39:56 90° W 16:40:28 76° N
ATLAS 5 CENTAUR R/B 4.0 16:39:15 25° ENE 16:39:58 25° ENE 16:45:19 10° ESE
IRAS Rocket 4.4 16:34:33 10° SSE 16:40:12 59° ENE 16:40:33 58° ENE
Cosmos 2082 Rocket 2.1 16:41:50 82° N 16:42:04 86° ENE 16:47:53 10° SSE
Cosmos 1503 Rocket 4.3 16:45:26 54° WSW 16:45:35 54° WSW 16:50:44 10° SSE
COSMOS 2455 2.8 16:40:03 10° SW 16:45:56 64° WNW 16:45:56 64° WNW
Cosmos 1300 Rocket 4.3 16:42:09 10° SSW 16:45:28 47° SW 16:45:28 47° SW
Cosmos 2322 Rocket 4.3 16:43:19 10° S 16:47:45 23° SE 16:52:09 10° E
CBERS-1 3.9 16:53:03 83° NE 16:53:12 86° ESE 16:58:27 10° SSW
Cosmos 1655 Rocket 4.1 16:53:26 59° NNE 16:54:37 73° E 17:01:03 10° SSE
ARIANE 5 R/B 3.4 16:54:01 35° ENE 16:55:23 43° ESE 17:00:13 10° S
Cosmos 1378 Rocket 3.9 16:58:33 61° SE 16:58:33 61° SE 17:02:22 10° SSE
IRS-P3 4.1 16:58:07 65° NE 16:58:48 75° ESE 17:04:13 10° S
Okean 1 Rocket 3.4 16:55:40 10° S 16:59:40 63° SE 16:59:40 63° SE
Cosmos 389 Rocket 4.2 17:02:31 31° ESE 17:02:31 31° ESE 17:05:02 10° SSE
Cosmos 1417 Rocket 4.3 16:56:38 10° S 17:02:53 80° W 17:03:46 66° NNW
SJ 16-02 4.0 17:03:58 10° E 17:04:32 10° E 17:05:05 10° E
Cosmos 1538 Rocket 4.4 17:00:28 10° SSW 17:05:52 62° ESE 17:07:13 47° ENE
Cosmos 1674 Rocket 4.0 17:11:20 57° SW 17:11:20 57° SW 17:15:21 10° S
Cosmos 2266 Rocket 4.1 17:12:10 51° NNE 17:13:49 72° E 17:20:18 10° SSE
Cosmos 2285 Rocket 4.1 17:17:14 54° N 17:18:43 72° ENE 17:25:13 10° SSE
Cosmos 2360 4.4 17:13:38 10° SW 17:19:01 51° WNW 17:19:01 51° WNW
SL-24 R/B - RUBIN 2 4.1 17:20:54 60° NE 17:21:21 62° ENE 17:26:24 10° SE
Meteor 1-4 Rocket 3.9 17:21:50 35° E 17:21:50 35° E 17:25:00 10° SSE
SL-16 R/B 4.2 17:17:17 10° SE 17:22:14 24° E 17:25:41 15° NE
Cosmos 2278 4.2 17:18:51 10° SW 17:23:55 44° W 17:23:55 44° W
IRS-1D 3.8 17:27:40 50° W 17:27:40 50° W 17:32:20 10° SSW
Cosmos 1805 4.1 17:25:23 10° S 17:29:13 43° ESE 17:29:32 42° E
CZ-2D R/B 3.3 17:31:04 27° W 17:31:04 27° W 17:35:08 10° SW
Cosmos 2360 Rocket 4.3 17:26:50 10° S 17:31:33 26° SE 17:36:13 10° ENE
SL-16 R/B 2.9 17:26:47 10° SSW 17:32:25 52° ESE 17:37:09 14° NE
CZ-4C R/B 4.2 17:29:21 10° SSE 17:32:18 37° E 17:32:18 37° E
SL-27 R/B 3.5 17:35:36 42° S 17:35:36 42° S 17:37:59 10° SSE
Meteor 1-15 Rocket 4.1 17:29:28 10° SSW 17:35:06 71° W 17:36:02 59° NNW
Cosmos 1455 Rocket 3.9 17:33:15 10° S 17:37:36 47° ESE 17:38:55 36° ENE
NOSS 3-4 (A) 4.5 17:31:44 10° SW 17:37:01 31° W 17:37:01 31° W
NOSS 3-4 (C) 4.4 17:31:50 10° SW 17:37:09 31° W 17:37:09 31° W
Cosmos 1980 Rocket 2.5 17:32:49 10° SW 17:38:14 46° WNW 17:38:14 46° WNW
RESURS DK-1 3.7 17:35:41 10° SSW 17:39:36 38° ESE 17:42:20 17° ENE
Cosmos 1697 Rocket 4.2 17:38:01 10° SW 17:41:19 22° W 17:41:19 22° W
Spot 4 Rocket 4.0 17:41:31 52° NNE 17:42:51 89° ESE 17:48:07 10° SSW
Cosmos 1975 Rocket 2.9 17:44:02 75° NNE 17:44:19 81° E 17:48:46 10° S
Cosmos 773 Rocket 4.4 17:39:23 10° SSW 17:44:18 45° W 17:44:18 45° W
Resurs 1-4 Rocket 3.7 17:45:17 20° W 17:45:17 20° W 17:48:43 10° SW
Cosmos 1833 Rocket 4.4 17:42:29 19° W 17:44:46 24° SW 17:49:17 10° S
Cosmos 1378 3.3 17:47:23 65° E 17:47:23 65° E 17:51:03 10° SSE
Cosmos 1777 Rocket 4.4 17:47:08 46° WNW 17:48:06 52° WSW 17:53:18 10° SSE
SeaSat 1 2.5 17:43:41 10° SSE 17:48:39 68° WSW 17:49:38 53° WNW
Starlink T 3.7 17:55:12 53° SSE 17:55:12 53° SSE 17:58:00 10° SE
Cosmos 1733 3.8 17:51:41 10° S 17:55:29 54° E 17:56:15 45° ENE
Cosmos 1544 Rocket 4.1 17:51:42 10° S 17:56:12 57° E 17:58:00 33° NE
Starlink N 3.7 17:57:15 54° S 17:57:15 54° S 18:00:08 10° SE
ASTEX 1 3.7 17:52:24 10° S 17:57:16 50° WSW 17:58:01 46° WNW
Starlink AS 4.1 17:58:02 40° SSE 17:58:02 40° SSE 18:00:16 10° SE
Starlink BA 4.1 17:58:14 40° SSE 17:58:14 40° SSE 18:00:29 10° SE
Starlink AU 4.1 17:58:27 40° SSE 17:58:27 40° SSE 18:00:43 10° SE
Starlink AT 4.1 17:58:41 40° SSE 17:58:41 40° SSE 18:00:56 10° SE
Starlink BB 4.1 17:58:53 40° SSE 17:58:53 40° SSE 18:01:09 10° SE
Starlink BC 4.0 17:59:07 41° SSE 17:59:07 41° SSE 18:01:23 10° SE
Starlink BK 4.0 17:59:19 41° SSE 17:59:19 41° SSE 18:01:36 10° SE
Starlink AY 4.0 17:59:32 41° SSE 17:59:32 41° SSE 18:01:50 10° SE
Starlink AW 4.0 17:59:46 41° SSE 17:59:46 41° SSE 18:02:04 10° SE
Starlink Q 3.6 17:59:30 55° S 17:59:30 55° S 18:02:29 10° SE
Starlink BJ 4.0 17:59:58 41° SSE 17:59:58 41° SSE 18:02:16 10° SE
Starlink AV 4.0 18:00:11 41° SSE 18:00:11 41° SSE 18:02:30 10° SE
Starlink BD 4.0 18:00:25 41° SSE 18:00:25 41° SSE 18:02:44 10° SE
BREEZE-M DEB (TANK) 4.2 17:46:27 10° WNW 18:00:00 72° SSW 18:03:45 10° ESE
Starlink BE 4.0 18:00:38 41° SSE 18:00:38 41° SSE 18:02:56 10° SE
Starlink BM 4.0 18:00:51 41° SSE 18:00:51 41° SSE 18:03:10 10° SE
Starlink AX 4.0 18:01:03 41° SSE 18:01:03 41° SSE 18:03:24 10° SE
Starlink BH 4.0 18:01:16 41° SSE 18:01:16 41° SSE 18:03:37 10° SE
Starlink AZ 4.0 18:01:29 41° S 18:01:29 41° S 18:03:50 10° SE
Starlink BG 4.0 18:01:42 42° S 18:01:42 42° S 18:04:04 10° SE
Starlink BF 4.0 18:01:55 42° S 18:01:55 42° S 18:04:17 10° SE
Starlink P 3.6 18:01:38 54° S 18:01:38 54° S 18:04:41 10° SE
Starlink BL 4.0 18:02:10 41° S 18:02:10 41° S 18:04:30 10° SE
Starlink AH 4.0 18:02:21 42° S 18:02:21 42° S 18:04:44 10° SE
Starlink AC 3.9 18:02:34 42° S 18:02:34 42° S 18:04:58 10° SE
Starlink X 3.9 18:02:47 42° S 18:02:47 42° S 18:05:11 10° SE
Starlink AE 4.0 18:03:02 41° S 18:03:02 41° S 18:05:24 10° SE
Starlink Z 3.9 18:03:13 42° S 18:03:13 42° S 18:05:39 10° SE
Starlink AK 3.9 18:03:26 42° S 18:03:26 42° S 18:05:51 10° SE
Starlink AQ 3.9 18:03:32 42° S 18:03:32 42° S 18:05:59 10° SE
Starlink AL 3.9 18:03:39 42° S 18:03:39 42° S 18:06:06 10° SE
Starlink AD 3.9 18:03:52 42° S 18:03:52 42° S 18:06:19 10° SE
Starlink U 3.6 18:03:44 53° SSW 18:03:44 53° SSW 18:06:53 10° SE
Starlink Y 3.9 18:04:18 42° S 18:04:18 42° S 18:06:46 10° SE
Starlink AG 3.9 18:04:31 42° S 18:04:31 42° S 18:06:59 10° SE
Cosmos 1025 Rocket 4.2 18:02:17 25° NE 18:04:13 38° E 18:08:22 10° SSE
Starlink W 3.9 18:04:45 41° S 18:04:45 41° S 18:07:12 10° SE
Starlink AJ 3.9 18:04:57 42° S 18:04:57 42° S 18:07:26 10° SE
Starlink AM 3.9 18:05:23 42° S 18:05:23 42° S 18:07:53 10° SE
Starlink AP 3.9 18:05:36 42° S 18:05:36 42° S 18:08:06 10° SE
Starlink AA 3.9 18:05:48 42° S 18:05:48 42° S 18:08:19 10° SE
Starlink AF 3.9 18:06:02 42° S 18:06:02 42° S 18:08:33 10° SE
Starlink B 3.6 18:05:53 52° SSW 18:05:53 52° SSW 18:09:07 10° SE
Cosmos 1356 3.9 18:02:21 10° SSW 18:05:15 52° SW 18:05:15 52° SW
Starlink AB 3.9 18:06:15 42° S 18:06:15 42° S 18:08:46 10° SE
Starlink AN 3.9 18:06:28 42° S 18:06:28 42° S 18:09:00 10° SE
ATLAS 2AS CENTAUR R/B 4.4 18:05:53 10° WSW 18:08:13 15° W 18:08:13 15° W
ADEOS II 2.9 18:11:45 32° WNW 18:12:02 32° W 18:16:49 10° SSW
USA 81 4.0 18:10:26 43° NNW 18:12:15 78° W 18:17:37 10° S
MOZ.5/SAFIR/RUBIN 5/SL-8 3.9 18:07:59 10° SSE 18:12:49 71° ENE 18:14:36 38° N
Cosmos 1470 4.1 18:09:26 10° S 18:13:11 38° ESE 18:16:02 16° NE
CZ-2C R/B 2.6 18:13:59 65° NNW 18:14:27 77° WNW 18:18:25 10° SSW
Okean 2 3.6 18:15:52 50° WNW 18:16:23 53° W 18:20:33 10° S
ERS-2 2.8 18:14:31 10° SSE 18:18:09 48° E 18:19:12 36° NNE
Cosmos 1707 4.3 18:18:52 19° NE 18:20:58 32° E 18:24:29 10° SSE
Starlink D 4.0 18:21:42 36° WSW 18:22:21 40° SSW 18:25:34 10° SE
Cosmos 1766 3.7 18:19:49 10° SSW 18:23:40 43° W 18:23:46 43° W
ATLAS 5 CENTAUR R/B 2.7 18:20:48 32° NW 18:24:21 76° SW 18:30:55 10° SE
Starlink S 4.1 18:23:56 34° WSW 18:24:40 39° SSW 18:27:53 10° SE
Starlink AR 4.3 18:25:43 26° SW 18:26:03 27° SSW 18:28:30 10° SE
Cosmos 2082 Rocket 4.2 18:23:41 12° W 18:26:57 18° SW 18:30:54 10° S
Starlink C 4.2 18:26:07 32° WSW 18:26:58 38° SSW 18:30:09 10° SE
CBERS 1 LM4 rocket 4.3 18:24:45 21° NNE 18:28:02 89° ESE 18:32:54 10° SSW
Starlink E 4.3 18:28:22 30° WSW 18:29:18 37° SSW 18:32:29 10° SE
deb Chang Zheng 4 4.0 18:29:16 39° WNW 18:29:39 40° W 18:33:45 10° SSW
Cosmos 1842 3.3 18:29:36 49° NW 18:30:20 60° W 18:34:17 10° S
Cosmos 923 Rocket 4.1 18:26:10 10° SSW 18:31:17 55° WNW 18:33:40 30° NNW
Starlink J 4.3 18:30:36 28° WSW 18:31:39 35° SSW 18:34:49 10° SE
Cosmos 2322 Rocket 2.1 18:26:40 10° SSW 18:32:18 65° WNW 18:36:44 16° N
CZ-4C R/B 4.3 18:27:57 10° SSW 18:33:00 28° SE 18:37:24 10° E
Cosmos 1953 3.9 18:29:52 10° S 18:33:37 34° ESE 18:37:20 10° NE
Starlink V 4.4 18:32:50 26° WSW 18:33:59 34° SSW 18:37:07 10° SE
Cosmos 1758 3.7 18:30:26 10° S 18:34:36 65° E 18:37:34 18° NNE
ARIANE 5 R/B 3.7 18:34:22 24° W 18:34:39 24° W 18:38:48 10° SW
Shenzhou-11 Module 4.0 18:35:47 16° NE 18:35:47 16° NE 18:36:53 10° ENE
Cosmos 158 Rocket 3.9 18:30:07 10° SSW 18:35:17 82° ESE 18:40:16 10° NNE
Starlink H 4.4 18:35:05 25° WSW 18:36:20 33° SSW 18:39:28 10° SE
Cosmos 2098 Rocket 2.5 18:35:20 45° NNW 18:36:23 77° W 18:39:45 10° S
DELTA 2 R/B (1) 4.0 18:36:24 32° NNW 18:38:27 45° NNE 18:43:47 10° E
Starlink F 4.5 18:37:20 23° WSW 18:38:42 32° SSW 18:41:49 10° SE
Cosmos 1536 Rocket 3.6 18:37:24 31° N 18:39:32 88° W 18:44:08 10° S
Meteor 1-21 4.3 18:37:39 27° NNW 18:40:57 77° W 18:46:53 10° S
ERBS 3.8 18:40:32 23° NNE 18:41:24 26° NE 18:44:22 10° ESE
Meteor 2-21 4.4 18:38:08 22° N 18:42:17 89° E 18:48:27 10° S
SJ 16-02 1.3 18:40:35 35° NNW 18:42:23 77° WSW 18:46:52 10° SSE
SL-08 R/B 4.4 18:38:25 23° N 18:42:28 85° W 18:48:41 10° S
Cosmos 2084 Rocket 3.6 18:40:24 10° SW 18:44:32 47° WNW 18:47:10 20° N
Cosmos 1437 Rocket 3.0 18:47:54 34° NW 18:49:29 59° WSW 18:53:38 10° S
MSX 3.8 18:45:02 10° N 18:50:45 77° WNW 18:56:36 10° SSW
IDEFIX/ARIANE 42P 2.8 18:52:02 22° NNW 18:55:11 48° W 19:00:18 10° SSW
COSMOS 2487 2.8 18:55:41 34° WNW 18:56:47 47° WSW 19:00:12 10° S
H-2A R/B 2.9 18:54:13 10° SSE 18:58:14 44° E 19:02:04 11° N
Cosmos 2333 Rocket 3.6 18:52:49 10° SSW 18:58:19 42° ESE 19:03:46 10° NE
Cosmos 1607 4.3 18:54:04 19° NNW 18:58:48 62° ENE 19:05:09 10° SE
Cosmos 1726 3.8 18:55:19 10° S 18:58:52 35° ESE 19:02:20 10° NE
PAYLOAD A 4.0 18:56:54 10° NNE 19:01:59 88° WNW 19:07:20 10° SSW
PSLV R/B 3.6 19:00:48 19° N 19:03:39 54° W 19:07:53 10° SSW
H-2A R/B 3.4 18:59:48 10° NNE 19:04:12 55° ESE 19:08:43 10° S
BREEZE M DEB (TANK) 4.3 18:59:56 16° NNW 19:05:52 33° NNE 19:09:16 10° E
SL-16 R/B 2.7 19:00:05 10° S 19:06:13 59° WSW 19:10:45 18° NW
Meteor 2-16 Rocket 4.5 19:03:12 13° N 19:08:48 88° W 19:15:03 10° S
Nadezhda 1 Rocket 4.0 19:02:40 10° SSW 19:08:59 74° W 19:15:08 10° N
CZ-4B R/B 4.4 19:10:05 10° ESE 19:12:01 14° E 19:13:56 10° NE
Cosmos 2360 Rocket 2.3 19:10:20 10° SSW 19:15:55 57° WNW 19:21:28 10° N
SL-16 R/B 3.3 19:11:37 10° SW 19:16:08 24° WNW 19:18:53 17° NW
DNEPR-1 R/B 4.1 19:13:12 15° N 19:16:28 47° ENE 19:20:27 10° SE
Cosmos 1937 Rocket 3.7 19:13:03 19° NW 19:16:41 59° WSW 19:21:51 10° SSE
RESURS DK-1 3.7 19:14:17 10° WSW 19:17:23 20° WNW 19:18:07 20° WNW
Cosmos 1680 Rocket 4.4 19:12:55 10° SW 19:17:25 29° W 19:20:42 16° NNW
SJ-6F 4.4 19:13:37 10° NNE 19:17:45 88° WNW 19:21:56 10° SSW
Cosmos 2219 Rocket 3.0 19:12:32 10° SSW 19:18:06 55° ESE 19:23:37 10° NE
Cosmos 1833 4.4 19:17:15 18° NW 19:21:31 60° WSW 19:27:11 10° SSE
Cosmos 1898 Rocket 4.2 19:18:13 18° NW 19:21:42 40° WSW 19:26:42 10° S
Cosmos 2333 4.3 19:17:29 10° SSW 19:23:16 86° ESE 19:29:03 10° NNE
Cosmos 1892 Rocket 4.4 19:20:02 10° NNE 19:24:15 50° E 19:28:35 10° SSE
Cosmos 2322 3.7 19:18:39 10° SSW 19:24:28 83° WNW 19:30:12 10° NNE
Cosmos 2298 Rocket 4.3 19:20:42 10° N 19:26:01 72° ENE 19:31:24 10° SSE
ALOS 4.0 19:24:51 10° NE 19:29:09 37° ESE 19:33:31 10° S
Cosmos 1674 3.5 19:26:53 10° N 19:30:41 53° E 19:34:31 10° SSE
ADEOS 4.2 19:26:02 10° NNW 19:30:51 36° W 19:35:45 10° SSW
CZ-4B R/B 2.8 19:28:22 10° NNE 19:32:01 74° ESE 19:35:42 10° S
Meteor 2-10 4.3 19:27:25 10° SSW 19:33:15 79° W 19:38:59 10° N
Cosmos 372 Rocket 4.1 19:29:07 10° NNW 19:34:21 84° ENE 19:39:37 10° SSE
Atlas Centaur 2 4.3 19:28:28 12° NNW 19:34:22 25° NNE 19:40:31 10° ENE
Cosmos 1709 Rocket 4.1 19:28:37 10° N 19:35:02 84° W 19:41:29 10° S
Meteor 1-16 Rocket 4.3 19:33:37 10° SSW 19:39:27 72° W 19:45:21 10° N
SAR-Lupe-4 3.6 19:36:01 10° SSE 19:39:41 85° ENE 19:43:19 10° NNW
SL-08 R/B 3.5 19:36:57 10° S 19:41:56 63° WSW 19:46:48 10° NNW
Centaur D AC-29 3.7 19:39:07 10° N 19:41:56 14° NE 19:46:43 10° ENE
ISS -3.6 19:42:39 13° NW 19:45:33 67° NE 19:48:57 10° ESE
CZ-2C R/B 2.9 19:41:15 10° N 19:46:07 42° W 19:50:56 10° SSW
Cosmos 1125 Rocket 4.2 19:42:49 10° N 19:48:02 58° ENE 19:53:18 10° SSE
Cosmos 1242 Rocket 4.0 19:46:50 10° NNE 19:50:13 38° E 19:53:37 10° SSE
ERS-2 4.3 19:49:24 10° SSW 19:51:18 14° WSW 19:53:10 10° W
FENGYUN 3A 4.2 19:47:21 10° NNE 19:52:46 67° ESE 19:58:15 10° S
COSMOS 2428 2.7 19:48:54 10° SSW 19:54:39 82° WNW 20:00:22 10° NNE
Cosmos 2150 Rocket 4.2 19:50:20 10° NNW 19:55:49 71° WSW 20:01:22 10° SSE
CZ-4B R/B 4.4 19:51:41 10° N 19:56:01 51° W 20:00:30 10° SSW
Cosmos 1707 4.4 19:54:07 10° WNW 19:56:55 19° WSW 19:59:45 10° SSW
Meteor PRIRODA 3.6 19:54:50 10° N 19:58:34 76° W 20:02:18 10° SSW
Cosmos 1461 3.7 19:55:23 10° SW 19:59:04 29° WNW 20:02:36 10° N
Cosmos 1484 Rocket 2.8 19:56:24 10° N 20:00:24 75° WNW 20:04:31 10° SSW
Cosmos 2228 3.5 19:59:36 10° SSW 20:03:49 43° W 20:08:01 10° NNW
Cosmos 2058 Rocket 3.1 20:01:08 10° SSW 20:05:43 75° W 20:10:12 10° N
Cosmos 1048 Rocket 4.1 20:00:51 10° SSW 20:06:20 83° WNW 20:11:44 10° NNE
Cosmos 1726 Rocket 3.9 20:02:00 10° SSW 20:06:22 47° W 20:10:40 10° NNW
